カタログに戻る

BD-21

運用中ナビゲーションMEO
NORAD 41315·PAYLOAD·🇨🇳 China

打ち上げ Feb 1, 2016 から Xichang Satellite Launch Center

Loading…

次のパス (今後24時間)

TLE

最新Source: Space-Track

元期: Sep 12, 2026, 00:27 UTC

1 41315U 16006A   26255.01900817 -.00000038  00000-0  00000-0 0  9995
2 41315  56.7856  60.7838 0002296 298.9998  60.9964  1.86230776 72214

AllMySatでBD-21をリアルタイム追跡

Download on the App Store